sat.trackr.live / text

‹ back to catalog

EOS-6 (OCEANSAT-3)

NORAD 54361 · 2022-158A

PAYLOAD ACTIVE UNKNOWN

§ Identity

Operator
Country
IND
Launch date
2022-11-26
Launch site
SRILR
Launch vehicle
Mass (kg)
RCS (m²)

External: N2YO · Heavens-Above · Gunter

§ Orbital elements

Epoch: 2026-09-20T22:25:23.573568Z

Period
99.52 min
Inclination
98.3553°
Eccentricity
0.0002230
Mean motion
14.46980463 rev/d
Perigee alt
733.9 km
Apogee alt
737.1 km
Semi-major
7,113.7 km
B*
4.1718e-5
RAAN
0.8601°
Arg perigee
80.2182°
Mean anomaly
279.9262°
Rev number
20,168

§ Raw data

EOS-6 (OCEANSAT-3)1 54361U 22158A   26263.93430062  .00000108  00000+0  41718-4 0  99962 54361  98.3553   0.8601 0002230  80.2182 279.9262 14.46980463201686

JSON: /api/v1/satellites/54361 · /tle

For live sub-satellite position, see the globe view (requires WebGL).

§ Visibility from observer

Set your observer location to see the next 7 days of passes ≥ 10°. The values pass through the URL so the page stays shareable.

No JS? Fill the form by hand. The geolocation button needs JavaScript.

§ Radio — SatNOGS DB

ModeDescriptionDownlinkUplink
QPSK A-DCS L-band downlink 1.703 GHz
FM A-DCS UHF downlink 465.988 MHz
FM Mode X (active over Norway & India) 8.275 GHz
BPSK S-band Telemetry 2.250 GHz

4 transmitters · refreshed weekly from db.satnogs.org